BEIDOU-2 IGSO-1

Last updated on Thu Nov 21 2024 00:02:41 GMT+0000 (Coordinated Universal Time)

1 36828U 10036A 24325.50715106 -.00000071 00000+0 00000+0 0 9995 2 36828 54.2561 168.1479 0042681 205.9141 335.1695 1.00285712 52343
UTC large
Height (km)
Speed (km/s)
/
Latitude / Longitude
Inclination (degrees)
Orbital Period (minutes)
Azimuth
Elevation
Range (km)
Doppler Factor

Next 0 passes for location: London (51.5072 / 0.1276)

Sorry there are no passes over London.